DW8097 Weather Reports


Display with metric or nautical units.
time (UTC)temp
F
wind
direction
speed
MPH
gust
MPH
rain 1hr
in
rain 24hr
in
rain mn
in
humidity
%
barometer
mb
20260504000041 70 344 5.0 9.0 0.00 0.00 0.00 26 1002.3
20260503234530 71 329 6.0 10.0 0.00 0.00 0.00 25 1002.3
20260503233029 71 314 4.0 12.0 0.00 0.00 0.00 24 1002.3
20260503231529 72 342 3.0 12.0 0.00 0.00 0.00 24 1002.4
20260503230028 71 355 7.0 14.0 0.00 0.00 0.00 22 1002.5
20260503224535 72 342 9.0 14.0 0.00 0.00 0.00 21 1002.5
20260503223025 72 329 7.0 17.0 0.00 0.00 0.00 21 1002.6
20260503221526 72 343 12.0 20.0 0.00 0.00 0.00 22 1002.4
20260503221524 72 9 12.0 20.0 0.00 0.00 0.00 22 1002.4
20260503220024 72 22 7.0 15.0 0.00 0.00 0.00 24 1002.4
20260503214530 72 360 5.0 12.0 0.00 0.00 0.00 25 1002.4
20260503213018 73 303 6.0 16.0 0.00 0.00 0.00 26 1002.4
20260503211516 73 355 9.0 16.0 0.00 0.00 0.00 27 1002.4
20260503210035 73 325 6.0 16.0 0.00 0.00 0.00 28 1002.6
20260503204512 73 355 6.0 14.0 0.00 0.00 0.00 28 1002.8
20260503203038 73 29 6.0 13.0 0.00 0.00 0.00 30 1003.0
20260503201538 73 355 5.0 11.0 0.00 0.00 0.00 30 1003.0
20260503200043 73 331 7.0 16.0 0.00 0.00 0.00 30 1003.1
20260503194534 72 30 7.0 15.0 0.00 0.00 0.00 29 1003.2
20260503193032 72 14 4.0 15.0 0.00 0.00 0.00 31 1003.3
20260503191534 72 350 8.0 16.0 0.00 0.00 0.00 30 1003.3
20260503190021 72 346 10.0 18.0 0.00 0.00 0.00 27 1003.4
20260503184521 71 351 10.0 16.0 0.00 0.00 0.00 31 1003.4
20260503183022 71 329 7.0 12.0 0.00 0.00 0.00 32 1003.5
20260503181514 70 338 6.0 13.0 0.00 0.00 0.00 34 1003.7
20260503180007 71 306 5.0 10.0 0.00 0.00 0.00 32 1003.8
20260503174502 69 350 5.0 14.0 0.00 0.00 0.00 36 1003.9
20260503173154 70 48 2.0 10.0 0.00 0.00 0.00 36 1004.1
20260503171554 68 24 6.0 8.0 0.00 0.00 0.00 35 1004.1
20260503081559 56 253 6.0 16.0 0.00 0.00 0.00 49 1005.2
20260503071543 54 221 4.0 7.0 0.00 0.00 0.00 49 1006.6
20260503054514 57 231 5.0 9.0 0.00 0.00 0.00 47 1007.6
20260503053006 57 242 3.0 7.0 0.00 0.00 0.00 48 1007.8
20260503051500 56 189 1.0 5.0 0.00 0.00 0.00 52 1008.0
20260503050058 57 227 3.0 7.0 0.00 0.00 0.00 51 1008.1
20260503044556 57 220 3.0 5.0 0.00 0.00 0.00 51 1008.2
20260503043048 57 232 3.0 5.0 0.00 0.00 0.00 51 1008.6
20260503041541 58 241 1.0 3.0 0.00 0.00 0.00 48 1008.8
20260503040037 59 260 1.0 4.0 0.00 0.00 0.00 46 1008.9
20260503034535 60 241 1.0 4.0 0.00 0.00 0.00 44 1009.0
20260503033029 60 274 2.0 4.0 0.00 0.00 0.00 42 1009.4
20260503031608 61 275 3.0 7.0 0.00 0.00 0.00 41 1009.8
20260503030054 61 250 4.0 8.0 0.00 0.00 0.00 40 1010.0
20260503024554 61 322 2.0 10.0 0.00 0.00 0.00 39 1010.0
20260503023055 61 280 3.0 10.0 0.00 0.00 0.00 39 1010.2
20260503021550 61 250 2.0 8.0 0.00 0.00 0.00 38 1010.2
20260503020058 61 335 2.0 5.0 0.00 0.00 0.00 39 1010.2
20260503014553 61 232 2.0 6.0 0.00 0.00 0.00 39 1009.9
20260503013046 60 229 3.0 6.0 0.00 0.00 0.00 41 1009.9
20260503011548 61 254 1.0 4.0 0.00 0.00 0.00 39 1009.8
20260503010040 62 257 2.0 4.0 0.00 0.00 0.00 36 1009.9
20260503004533 62 220 2.0 4.0 0.00 0.00 0.00 34 1010.0
20260503003030 63 254 2.0 5.0 0.00 0.00 0.00 34 1010.2
20260503001528 63 273 2.0 5.0 0.00 0.00 0.00 33 1010.4